TimeCDT,TemperatureF,Dew PointF,Humidity,Sea Level PressureIn,VisibilityMPH,Wind Direction,Wind SpeedMPH,Gust SpeedMPH,PrecipitationIn,Events,Conditions,WindDirDegrees,DateUTC
12:15 AM,64.4,62.6,94,29.84,10.0,SSE,6.9,-,N/A,,Clear,160,2013-09-19 05:15:00
12:35 AM,64.4,62.6,94,29.83,10.0,SSE,4.6,-,N/A,,Clear,150,2013-09-19 05:35:00
12:55 AM,64.4,62.8,94,29.83,10.0,SSE,6.9,-,N/A,,Clear,160,2013-09-19 05:55:00
1:15 AM,64.4,63.0,95,29.83,7.0,SSE,6.9,-,N/A,,Clear,160,2013-09-19 06:15:00
1:35 AM,64.0,63.0,96,29.84,7.0,SSE,4.6,-,N/A,,Clear,150,2013-09-19 06:35:00
1:55 AM,64.0,63.1,97,29.84,7.0,SSE,4.6,-,N/A,,Clear,150,2013-09-19 06:55:00
2:15 AM,63.7,63.0,97,29.84,5.0,SSE,4.6,-,N/A,,Clear,150,2013-09-19 07:15:00
2:35 AM,63.7,63.0,97,29.84,4.0,SE,5.8,-,N/A,,Scattered Clouds,140,2013-09-19 07:35:00
2:55 AM,63.9,63.1,97,29.85,4.0,SSE,3.5,-,N/A,,Scattered Clouds,150,2013-09-19 07:55:00
3:15 AM,63.0,62.6,99,29.84,3.0,SSE,4.6,-,N/A,,Clear,150,2013-09-19 08:15:00
3:35 AM,63.9,63.5,99,29.83,4.0,SE,4.6,-,N/A,,Clear,140,2013-09-19 08:35:00
3:55 AM,63.7,63.1,98,29.82,2.5,SE,3.5,-,N/A,,Clear,130,2013-09-19 08:55:00
4:15 AM,63.7,63.3,99,29.82,2.5,SE,3.5,-,N/A,,Mostly Cloudy,140,2013-09-19 09:15:00
4:35 AM,63.5,63.1,99,29.79,2.0,ESE,4.6,-,N/A,,Overcast,120,2013-09-19 09:35:00
4:55 AM,64.0,63.7,99,29.80,1.5,SSE,8.1,-,N/A,Thunderstorm,Overcast,150,2013-09-19 09:55:00
5:15 AM,64.4,64.0,99,29.81,0.5,SSE,9.2,-,N/A,Fog-Thunderstorm,Fog,160,2013-09-19 10:15:00
5:35 AM,64.8,64.4,99,29.81,1.5,SSE,8.1,-,N/A,Thunderstorm,Overcast,150,2013-09-19 10:35:00
5:55 AM,65.3,64.8,98,29.82,2.5,SSE,5.8,-,N/A,Thunderstorm,Overcast,160,2013-09-19 10:55:00
6:15 AM,65.3,64.8,98,29.82,2.5,SE,3.5,-,N/A,,Overcast,140,2013-09-19 11:15:00
6:35 AM,64.9,64.4,98,29.81,3.0,South,4.6,-,N/A,,Overcast,180,2013-09-19 11:35:00
6:55 AM,64.8,63.9,97,29.82,5.0,ESE,5.8,-,N/A,,Scattered Clouds,120,2013-09-19 11:55:00
7:15 AM,65.3,64.0,96,29.81,5.0,SE,4.6,-,N/A,Thunderstorm,Scattered Clouds,140,2013-09-19 12:15:00
7:35 AM,65.8,64.6,96,29.82,7.0,SSE,3.5,-,N/A,,Scattered Clouds,150,2013-09-19 12:35:00
7:55 AM,67.1,65.3,94,29.83,7.0,SSE,9.2,-,N/A,,Mostly Cloudy,160,2013-09-19 12:55:00
8:15 AM,67.6,65.8,94,29.82,7.0,SSE,6.9,-,N/A,,Scattered Clouds,160,2013-09-19 13:15:00
8:35 AM,68.0,66.2,94,29.81,7.0,SSE,6.9,-,N/A,,Clear,160,2013-09-19 13:35:00
8:55 AM,68.4,66.7,95,29.80,7.0,South,10.4,-,N/A,,Clear,170,2013-09-19 13:55:00
9:15 AM,70.0,67.1,91,29.78,7.0,SSE,12.7,-,N/A,,Clear,160,2013-09-19 14:15:00
9:35 AM,70.0,66.9,90,29.78,10.0,SSE,10.4,-,N/A,,Clear,160,2013-09-19 14:35:00
9:55 AM,70.9,67.8,90,29.79,10.0,South,10.4,-,N/A,,Scattered Clouds,170,2013-09-19 14:55:00
10:15 AM,72.5,68.2,86,29.79,10.0,South,9.2,16.1,N/A,,Overcast,180,2013-09-19 15:15:00
10:35 AM,72.5,68.0,86,29.79,10.0,South,12.7,-,N/A,,Overcast,180,2013-09-19 15:35:00
10:55 AM,73.4,68.2,84,29.79,10.0,South,12.7,18.4,N/A,,Overcast,180,2013-09-19 15:55:00
11:15 AM,74.5,68.5,82,29.78,10.0,South,12.7,-,N/A,,Overcast,180,2013-09-19 16:15:00
11:35 AM,74.3,68.4,82,29.79,10.0,South,12.7,-,N/A,,Overcast,170,2013-09-19 16:35:00
11:55 AM,75.2,68.9,81,29.78,10.0,South,13.8,-,N/A,,Overcast,180,2013-09-19 16:55:00
12:15 PM,75.2,68.5,80,29.78,10.0,South,13.8,-,N/A,,Overcast,170,2013-09-19 17:15:00
12:35 PM,75.4,68.5,79,29.78,10.0,South,12.7,21.9,N/A,,Overcast,190,2013-09-19 17:35:00
12:55 PM,75.9,68.5,78,29.77,10.0,South,15.0,19.6,N/A,,Overcast,190,2013-09-19 17:55:00
1:35 PM,75.4,68.4,79,29.78,10.0,SW,11.5,-,N/A,,Overcast,220,2013-09-19 18:35:00
1:55 PM,74.8,68.2,80,29.78,10.0,SW,10.4,19.6,N/A,,Overcast,220,2013-09-19 18:55:00
2:15 PM,74.7,68.2,80,29.78,10.0,SSW,10.4,-,N/A,,Overcast,210,2013-09-19 19:15:00
2:35 PM,73.9,68.4,83,29.78,10.0,WSW,6.9,-,N/A,Thunderstorm,Overcast,240,2013-09-19 19:35:00
2:55 PM,73.6,66.2,78,29.78,10.0,WNW,15.0,18.4,N/A,,Overcast,300,2013-09-19 19:55:00
3:15 PM,70.3,63.0,77,29.76,10.0,WNW,8.1,-,N/A,,Overcast,290,2013-09-19 20:15:00
3:35 PM,69.8,62.6,78,29.76,10.0,WNW,6.9,-,N/A,,Overcast,290,2013-09-19 20:35:00
3:55 PM,70.5,63.0,77,29.73,10.0,East,4.6,-,N/A,,Mostly Cloudy,100,2013-09-19 20:55:00
4:15 PM,72.0,63.3,74,29.73,10.0,Calm,Calm,-,N/A,,Mostly Cloudy,0,2013-09-19 21:15:00
4:35 PM,71.2,64.0,78,29.74,10.0,SW,4.6,-,N/A,,Overcast,220,2013-09-19 21:35:00
4:55 PM,70.9,65.7,83,29.72,10.0,South,4.6,-,N/A,Rain,Light Rain,190,2013-09-19 21:55:00
5:15 PM,70.7,65.7,84,29.72,10.0,West,3.5,-,N/A,,Overcast,270,2013-09-19 22:15:00
5:35 PM,70.5,65.7,85,29.72,10.0,Calm,Calm,-,N/A,,Overcast,0,2013-09-19 22:35:00
5:55 PM,69.8,65.3,86,29.72,10.0,NW,4.6,-,N/A,,Overcast,310,2013-09-19 22:55:00
6:15 PM,69.1,65.3,88,29.73,10.0,WNW,3.5,-,N/A,,Overcast,300,2013-09-19 23:15:00
6:35 PM,69.1,64.2,84,29.75,10.0,WNW,4.6,-,N/A,,Overcast,290,2013-09-19 23:35:00
6:55 PM,68.4,64.0,86,29.76,10.0,West,4.6,-,N/A,,Overcast,270,2013-09-19 23:55:00
7:15 PM,67.8,63.9,87,29.74,10.0,West,3.5,-,N/A,,Overcast,280,2013-09-20 00:15:00
7:35 PM,67.1,64.0,90,29.74,10.0,Calm,Calm,-,N/A,Rain,Rain,0,2013-09-20 00:35:00
7:55 PM,66.4,64.4,93,29.75,10.0,Calm,Calm,-,N/A,,Light Drizzle,0,2013-09-20 00:55:00
8:15 PM,65.7,64.2,95,29.75,10.0,Calm,Calm,-,N/A,,Overcast,0,2013-09-20 01:15:00
8:35 PM,65.3,64.4,97,29.76,10.0,NW,3.5,-,N/A,,Overcast,310,2013-09-20 01:35:00
8:55 PM,64.9,63.5,95,29.76,10.0,West,5.8,-,N/A,,Mostly Cloudy,280,2013-09-20 01:55:00
9:15 PM,64.6,63.5,96,29.76,10.0,West,4.6,-,N/A,,Scattered Clouds,280,2013-09-20 02:15:00
9:35 PM,64.8,63.9,97,29.76,10.0,WSW,3.5,-,N/A,,Overcast,250,2013-09-20 02:35:00
9:55 PM,64.9,64.0,97,29.76,10.0,Calm,Calm,-,N/A,,Overcast,0,2013-09-20 02:55:00
10:15 PM,63.5,62.8,97,29.76,7.0,South,3.5,-,N/A,,Scattered Clouds,190,2013-09-20 03:15:00
10:35 PM,63.0,62.6,99,29.74,5.0,South,3.5,-,N/A,,Scattered Clouds,180,2013-09-20 03:35:00
10:55 PM,62.8,62.4,99,29.73,4.0,SSW,4.6,-,N/A,,Scattered Clouds,200,2013-09-20 03:55:00
11:15 PM,63.7,63.3,99,29.74,7.0,SW,4.6,-,N/A,,Scattered Clouds,230,2013-09-20 04:15:00
11:35 PM,63.7,63.3,99,29.75,5.0,WSW,3.5,-,N/A,,Scattered Clouds,240,2013-09-20 04:35:00
11:55 PM,63.9,63.3,98,29.75,5.0,SW,6.9,-,N/A,,Mostly Cloudy,230,2013-09-20 04:55:00